Location: Newark
(25.0000°N, 73.5000°E)
Time: 00:30:15
(UTC+00:00)

X-37B - Pass Details

Date: 26 June 2021
Orbit: 383 x 392 km, 45.0° (Epoch: 01 July)

Event Time Altitude Azimuth Distance (km) Brightness Sun altitude
Rises 14:31:22 0° 267° (W) 2,250 5.5 -7.2°
Reaches altitude 10° 14:34:09 10° 295° (WNW) 1,397 5.1 -7.7°
Maximum altitude 14:35:55 14° 329° (NNW) 1,185 4.1 -8.1°
Drops below altitude 10° 14:37:40 10° 3° (N) 1,397 3.8 -8.4°
Sets 14:40:28 0° 30° (NNE) 2,251 4.5 -9.0°
